Time,TemperatureF,DewpointF,PressureIn,WindDirection,WindDirectionDegrees,WindSpeedMPH,WindSpeedGustMPH,Humidity,HourlyPrecipIn,Conditions,Clouds,dailyrainin,SoftwareType,DateUTC
2013-03-29 00:06:00,34.8,28.0,30.25,SSW,208,0.0,-999.0,75,-99.99,,,0.00,weatherlink.com 1.10,2013-03-29 04:06:00,
2013-03-29 00:21:00,34.5,28.0,30.25,SSW,208,0.0,-999.0,76,-99.99,,,0.00,weatherlink.com 1.10,2013-03-29 04:21:00,
2013-03-29 00:36:00,34.5,28.0,30.25,SSW,208,0.0,-999.0,76,-99.99,,,0.00,weatherlink.com 1.10,2013-03-29 04:36:00,
2013-03-29 00:51:00,34.3,27.0,30.25,SSW,208,0.0,-999.0,76,-99.99,,,0.00,weatherlink.com 1.10,2013-03-29 04:51:00,
2013-03-29 01:06:00,33.9,27.0,30.25,SSW,208,0.0,-999.0,76,-99.99,,,0.00,weatherlink.com 1.10,2013-03-29 05:06:00,
2013-03-29 01:21:00,33.1,27.0,30.25,SSW,208,0.0,-999.0,77,-99.99,,,0.00,weatherlink.com 1.10,2013-03-29 05:21:00,
2013-03-29 01:36:00,33.0,27.0,30.25,SSW,208,0.0,-999.0,77,-99.99,,,0.00,weatherlink.com 1.10,2013-03-29 05:36:00,
2013-03-29 01:51:00,33.0,27.0,30.25,SSW,208,0.0,-999.0,78,-99.99,,,0.00,weatherlink.com 1.10,2013-03-29 05:51:00,
2013-03-29 02:06:00,33.2,27.0,30.25,SSW,208,0.0,-999.0,78,-99.99,,,0.00,weatherlink.com 1.10,2013-03-29 06:06:00,
2013-03-29 02:21:00,32.9,27.0,30.26,SSW,208,0.0,-999.0,78,-99.99,,,0.00,weatherlink.com 1.10,2013-03-29 06:21:00,
2013-03-29 02:36:00,32.4,26.0,30.25,SSW,208,0.0,-999.0,78,-99.99,,,0.00,weatherlink.com 1.10,2013-03-29 06:36:00,
2013-03-29 02:51:00,32.3,26.0,30.25,SSW,208,0.0,-999.0,79,-99.99,,,0.00,weatherlink.com 1.10,2013-03-29 06:51:00,
2013-03-29 03:06:00,32.0,26.0,30.25,SSW,208,0.0,-999.0,79,-99.99,,,0.00,weatherlink.com 1.10,2013-03-29 07:06:00,
2013-03-29 03:21:00,31.7,26.0,30.25,SSW,208,0.0,-999.0,79,-99.99,,,0.00,weatherlink.com 1.10,2013-03-29 07:21:00,
2013-03-29 03:36:00,31.2,26.0,30.25,SSW,208,0.0,-999.0,80,-99.99,,,0.00,weatherlink.com 1.10,2013-03-29 07:36:00,
2013-03-29 03:51:00,30.8,25.0,30.25,SSW,208,0.0,-999.0,80,-99.99,,,0.00,weatherlink.com 1.10,2013-03-29 07:51:00,
2013-03-29 04:06:00,30.8,25.0,30.24,SSW,208,0.0,-999.0,80,-99.99,,,0.00,weatherlink.com 1.10,2013-03-29 08:06:00,
2013-03-29 04:21:00,30.8,26.0,30.24,SSW,208,0.0,-999.0,81,-99.99,,,0.00,weatherlink.com 1.10,2013-03-29 08:21:00,
2013-03-29 04:36:00,30.8,26.0,30.24,SSW,208,0.0,-999.0,81,-99.99,,,0.00,weatherlink.com 1.10,2013-03-29 08:36:00,
2013-03-29 04:51:00,30.5,26.0,30.24,SSW,208,0.0,-999.0,82,-99.99,,,0.00,weatherlink.com 1.10,2013-03-29 08:51:00,
2013-03-29 05:06:00,30.1,25.0,30.24,SSW,208,0.0,-999.0,82,-99.99,,,0.00,weatherlink.com 1.10,2013-03-29 09:06:00,
2013-03-29 05:21:00,30.1,25.0,30.24,SSW,208,0.0,-999.0,82,-99.99,,,0.00,weatherlink.com 1.10,2013-03-29 09:21:00,
2013-03-29 05:36:00,30.2,26.0,30.24,SSW,208,0.0,-999.0,83,-99.99,,,0.00,weatherlink.com 1.10,2013-03-29 09:36:00,
2013-03-29 05:51:00,30.0,25.0,30.24,SSW,208,0.0,-999.0,83,-99.99,,,0.00,weatherlink.com 1.10,2013-03-29 09:51:00,
2013-03-29 06:06:00,29.8,25.0,30.24,SSW,208,0.0,-999.0,83,-99.99,,,0.00,weatherlink.com 1.10,2013-03-29 10:06:00,
2013-03-29 06:21:00,29.6,25.0,30.24,SSW,208,0.0,-999.0,83,-99.99,,,0.00,weatherlink.com 1.10,2013-03-29 10:21:00,
2013-03-29 06:36:00,29.3,25.0,30.24,SSW,208,0.0,-999.0,84,-99.99,,,0.00,weatherlink.com 1.10,2013-03-29 10:36:00,
2013-03-29 07:06:00,28.9,25.0,30.23,SSW,208,0.0,-999.0,84,-99.99,,,0.00,weatherlink.com 1.10,2013-03-29 11:06:00,
2013-03-29 07:22:00,28.5,24.0,30.23,SSW,208,0.0,-999.0,84,-99.99,,,0.00,weatherlink.com 1.10,2013-03-29 11:22:00,
2013-03-29 07:51:00,28.6,25.0,30.24,SSW,208,0.0,-999.0,85,-99.99,,,0.00,weatherlink.com 1.10,2013-03-29 11:51:00,
2013-03-29 08:06:00,28.6,25.0,30.24,SSW,208,0.0,-999.0,85,-99.99,,,0.00,weatherlink.com 1.10,2013-03-29 12:06:00,
2013-03-29 08:21:00,29.2,25.0,30.25,SSW,208,0.0,-999.0,85,-99.99,,,0.00,weatherlink.com 1.10,2013-03-29 12:21:00,
2013-03-29 08:36:00,30.1,26.0,30.25,SSW,208,0.0,-999.0,86,-99.99,,,0.00,weatherlink.com 1.10,2013-03-29 12:36:00,
2013-03-29 08:51:00,31.8,28.0,30.25,SSW,208,0.0,-999.0,86,-99.99,,,0.00,weatherlink.com 1.10,2013-03-29 12:51:00,
2013-03-29 09:06:00,33.2,30.0,30.25,SSW,208,0.0,-999.0,86,-99.99,,,0.00,weatherlink.com 1.10,2013-03-29 13:06:00,
2013-03-29 09:21:00,34.8,31.0,30.25,SSW,208,0.0,-999.0,86,-99.99,,,0.00,weatherlink.com 1.10,2013-03-29 13:21:00,
2013-03-29 09:36:00,36.8,33.0,30.25,SSW,208,0.0,-999.0,86,-99.99,,,0.00,weatherlink.com 1.10,2013-03-29 13:36:00,
2013-03-29 09:51:00,38.5,34.0,30.26,SSW,208,0.0,-999.0,84,-99.99,,,0.00,weatherlink.com 1.10,2013-03-29 13:51:00,
2013-03-29 10:06:00,39.4,34.0,30.26,WSW,250,0.0,-999.0,82,-99.99,,,0.00,weatherlink.com 1.10,2013-03-29 14:06:00,
2013-03-29 10:21:00,40.2,35.0,30.25,WSW,250,0.0,-999.0,80,-99.99,,,0.00,weatherlink.com 1.10,2013-03-29 14:21:00,
2013-03-29 10:36:00,40.6,34.0,30.26,SW,227,0.0,-999.0,78,-99.99,,,0.00,weatherlink.com 1.10,2013-03-29 14:36:00,
2013-03-29 10:51:00,41.0,34.0,30.26,SSW,207,4.0,-999.0,77,-99.99,,,0.00,weatherlink.com 1.10,2013-03-29 14:51:00,
2013-03-29 11:06:00,42.4,35.0,30.26,SSW,207,1.0,-999.0,75,-99.99,,,0.00,weatherlink.com 1.10,2013-03-29 15:06:00,
2013-03-29 11:21:00,43.1,35.0,30.26,West,269,0.0,-999.0,74,-99.99,,,0.00,weatherlink.com 1.10,2013-03-29 15:21:00,
2013-03-29 11:51:00,43.2,34.0,30.27,WSW,254,0.0,-999.0,71,-99.99,,,0.00,weatherlink.com 1.10,2013-03-29 15:51:00,
2013-03-29 12:06:00,44.3,35.0,30.26,NNW,329,0.0,-999.0,70,-99.99,,,0.00,weatherlink.com 1.10,2013-03-29 16:06:00,
2013-03-29 12:21:00,44.9,35.0,30.25,West,277,0.0,-999.0,68,-99.99,,,0.00,weatherlink.com 1.10,2013-03-29 16:21:00,
2013-03-29 13:06:00,46.5,36.0,30.24,West,279,1.0,-999.0,66,-99.99,,,0.00,weatherlink.com 1.10,2013-03-29 17:06:00,
2013-03-29 14:27:00,48.6,36.0,30.21,WNW,286,4.0,-999.0,62,-99.99,,,0.00,weatherlink.com 1.10,2013-03-29 18:27:00,
2013-03-29 14:36:00,49.1,36.0,30.20,WSW,246,2.0,-999.0,62,-99.99,,,0.00,weatherlink.com 1.10,2013-03-29 18:36:00,
2013-03-29 14:51:00,49.4,36.0,30.20,NNW,333,5.0,-999.0,61,-99.99,,,0.00,weatherlink.com 1.10,2013-03-29 18:51:00,
2013-03-29 15:06:00,50.0,36.0,30.19,WNW,288,6.0,-999.0,60,-99.99,,,0.00,weatherlink.com 1.10,2013-03-29 19:06:00,
2013-03-29 15:36:00,50.7,36.0,30.18,West,281,2.0,-999.0,58,-99.99,,,0.00,weatherlink.com 1.10,2013-03-29 19:36:00,
2013-03-29 15:51:00,50.8,36.0,30.18,WSW,249,10.0,-999.0,58,-99.99,,,0.00,weatherlink.com 1.10,2013-03-29 19:51:00,
2013-03-29 16:21:00,50.5,36.0,30.17,WNW,294,5.0,-999.0,57,-99.99,,,0.00,weatherlink.com 1.10,2013-03-29 20:21:00,
2013-03-29 16:36:00,51.2,36.0,30.16,WNW,302,0.0,-999.0,57,-99.99,,,0.00,weatherlink.com 1.10,2013-03-29 20:36:00,
2013-03-29 16:51:00,51.3,36.0,30.16,West,268,4.0,-999.0,56,-99.99,,,0.00,weatherlink.com 1.10,2013-03-29 20:51:00,
2013-03-29 17:06:00,50.7,35.0,30.16,NNW,329,5.0,-999.0,55,-99.99,,,0.00,weatherlink.com 1.10,2013-03-29 21:06:00,
2013-03-29 17:21:00,50.8,35.0,30.16,WNW,295,0.0,-999.0,55,-99.99,,,0.00,weatherlink.com 1.10,2013-03-29 21:21:00,
2013-03-29 17:36:00,52.2,36.0,30.16,West,277,9.0,-999.0,55,-99.99,,,0.00,weatherlink.com 1.10,2013-03-29 21:36:00,
2013-03-29 17:51:00,51.0,35.0,30.15,WNW,290,3.0,-999.0,54,-99.99,,,0.00,weatherlink.com 1.10,2013-03-29 21:51:00,
2013-03-29 18:21:00,50.6,34.0,30.16,NW,323,0.0,-999.0,53,-99.99,,,0.00,weatherlink.com 1.10,2013-03-29 22:21:00,
2013-03-29 18:36:00,50.9,34.0,30.15,NNW,340,3.0,-999.0,53,-99.99,,,0.00,weatherlink.com 1.10,2013-03-29 22:36:00,
2013-03-29 19:06:00,50.8,33.0,30.16,NNW,334,2.0,-999.0,51,-99.99,,,0.00,weatherlink.com 1.10,2013-03-29 23:06:00,
2013-03-29 19:21:00,49.9,32.0,30.16,NNW,341,0.0,-999.0,51,-99.99,,,0.00,weatherlink.com 1.10,2013-03-29 23:21:00,
2013-03-29 19:36:00,49.0,31.0,30.16,North,355,0.0,-999.0,51,-99.99,,,0.00,weatherlink.com 1.10,2013-03-29 23:36:00,
2013-03-29 19:51:00,47.9,31.0,30.16,North,355,0.0,-999.0,52,-99.99,,,0.00,weatherlink.com 1.10,2013-03-29 23:51:00,
2013-03-29 20:06:00,46.9,30.0,30.16,North,355,0.0,-999.0,52,-99.99,,,0.00,weatherlink.com 1.10,2013-03-30 00:06:00,
2013-03-29 20:21:00,45.7,29.0,30.16,North,355,0.0,-999.0,53,-99.99,,,0.00,weatherlink.com 1.10,2013-03-30 00:21:00,
2013-03-29 20:36:00,44.3,28.0,30.16,North,355,0.0,-999.0,53,-99.99,,,0.00,weatherlink.com 1.10,2013-03-30 00:36:00,
2013-03-29 21:06:00,42.4,28.0,30.16,North,355,0.0,-999.0,56,-99.99,,,0.00,weatherlink.com 1.10,2013-03-30 01:06:00,
2013-03-29 21:21:00,41.9,27.0,30.17,North,355,0.0,-999.0,57,-99.99,,,0.00,weatherlink.com 1.10,2013-03-30 01:21:00,
2013-03-29 21:36:00,41.1,28.0,30.17,North,355,0.0,-999.0,59,-99.99,,,0.00,weatherlink.com 1.10,2013-03-30 01:36:00,
2013-03-29 21:51:00,40.2,28.0,30.17,North,355,0.0,-999.0,61,-99.99,,,0.00,weatherlink.com 1.10,2013-03-30 01:51:00,
2013-03-29 22:06:00,39.3,28.0,30.18,North,355,0.0,-999.0,63,-99.99,,,0.00,weatherlink.com 1.10,2013-03-30 02:06:00,
2013-03-29 22:21:00,39.1,28.0,30.18,North,355,0.0,-999.0,64,-99.99,,,0.00,weatherlink.com 1.10,2013-03-30 02:21:00,
2013-03-29 22:36:00,38.5,28.0,30.18,North,355,0.0,-999.0,65,-99.99,,,0.00,weatherlink.com 1.10,2013-03-30 02:36:00,
2013-03-29 22:51:00,38.0,27.0,30.18,North,355,0.0,-999.0,65,-99.99,,,0.00,weatherlink.com 1.10,2013-03-30 02:51:00,
2013-03-29 23:06:00,37.5,27.0,30.18,North,355,0.0,-999.0,66,-99.99,,,0.00,weatherlink.com 1.10,2013-03-30 03:06:00,
2013-03-29 23:21:00,37.1,27.0,30.18,North,355,0.0,-999.0,67,-99.99,,,0.00,weatherlink.com 1.10,2013-03-30 03:21:00,
2013-03-29 23:36:00,36.9,27.0,30.18,North,355,0.0,-999.0,67,-99.99,,,0.00,weatherlink.com 1.10,2013-03-30 03:36:00,